Wind_Speed
10 10 11 12 12 13 13 14 15 17 17 19 22 24 25 27 31 24 18 6 6 8 12 18 23 20 18 17 21 18 13 15 21 21 18 8 1 7 11 17 3 9 12 15 34
12 12 12 12 13 14 14 15 15 16 18 19 20 23 25 26 27 28 13 14 9 11 10 17 17 17 12 18 16 15 13 21 21 20 16 16 17 5 17 7 8 18 19 28 28
14 16 15 14 14 15 15 15 15 16 17 19 20 22 24 23 17 4 7 6 8 10 12 16 19 19 21 18 19 21 19 20 22 22 21 16 17 18 14 15 13 13 23 23 27
14 16 17 17 16 16 16 16 17 16 17 17 18 20 24 12 7 7 10 13 19 21 18 21 18 19 18 18 20 23 22 20 18 20 21 20 18 19 20 16 15 16 29 23 22
11 13 15 16 17 17 18 18 18 18 18 18 18 21 15 8 17 23 30 18 11 12 14 14 15 17 19 17 18 21 20 20 20 22 21 21 21 20 20 20 16 14 26 22 20
8 10 12 12 14 15 17 18 18 19 20 20 19 18 10 19 16 17 12 12 15 16 19 19 16 18 20 18 19 21 24 25 24 24 22 22 22 19 19 19 20 14 22 21 22
7 7 8 8 10 11 11 12 14 14 15 16 16 12 11 23 18 21 26 26 26 25 21 26 24 18 15 20 15 21 21 20 21 22 24 23 27 26 21 19 20 20 13 22 21
8 7 7 6 6 7 8 10 11 11 13 12 11 10 9 18 26 31 33 30 27 26 26 24 23 21 21 19 23 23 24 22 18 23 24 23 27 21 20 19 23 16 13 14 21
11 12 13 13 12 12 11 11 10 12 12 9 7 10 15 17 18 23 24 24 20 18 18 18 15 19 16 18 17 18 21 25 27 23 24 23 24 18 17 18 18 18 13 14 14
11 10 10 10 11 13 15 16 14 17 12 11 15 7 12 11 22 14 12 13 12 9 13 11 8 13 14 14 17 18 20 21 23 21 21 21 20 19 18 15 18 20 16 17 17
7 5 6 6 7 7 9 8 7 7 18 11 10 11 8 10 6 11 14 14 16 16 17 18 15 18 20 21 24 23 24 27 23 24 23 16 18 18 15 13 17 16 15 15 18
7 6 5 6 7 7 5 4 5 4 12 21 26 30 35 32 27 23 20 15 16 20 20 18 25 22 23 22 24 25 26 26 23 23 21 21 26 22 20 18 19 19 17 18 17
10 8 7 6 9 10 10 14 9 7 8 18 29 31 33 31 33 30 22 24 22 24 22 21 31 21 25 24 27 24 26 22 26 23 23 22 27 23 22 20 20 20 20 20 18
11 9 8 6 7 9 12 8 8 2 6 13 18 18 27 24 31 28 38 27 28 31 25 23 26 25 25 30 25 20 25 25 24 20 16 18 19 25 20 22 19 22 22 20 19
11 11 10 9 12 9 7 8 2 2 5 8 3 6 5 19 8 11 36 24 32 30 22 36 27 23 27 29 25 27 22 21 12 15 16 29 10 30 17 22 21 20 20 25 23
12 11 11 9 10 15 11 7 1 5 11 7 6 10 10 17 22 4 4 23 25 26 26 35 25 27 28 25 19 15 13 15 15 7 7 33 14 18 17 20 23 23 21 20 24
15 14 14 13 15 9 14 3 6 9 9 13 18 14 15 18 20 21 15 14 17 16 22 30 32 29 27 26 22 17 13 3 6 8 12 21 16 21 21 18 23 17 15 12 22
16 15 15 21 19 18 8 4 11 14 29 12 7 11 18 19 20 21 22 20 19 24 15 19 20 31 25 28 28 21 20 11 14 13 16 20 19 21 25 26 23 18 1 8 12
13 13 20 24 21 19 5 9 7 20 14 19 18 19 23 25 15 15 20 21 22 22 26 16 27 27 24 28 28 32 19 25 20 22 13 14 27 24 22 25 6 3 10 4 7
10 9 26 23 22 16 8 14 11 21 23 16 5 13 18 18 20 20 23 20 22 22 16 13 19 29 25 1 18 16 16 18 6 8 7 13 20 10 12 13 5 3 7 5 5
5 1 8 24 22 6 9 8 17 24 21 2 8 15 18 16 16 21 18 18 12 15 5 6 4 15 12 13 19 8 12 9 4 5 6 13 6 9 9 11 12 5 4 6 1
7 3 5 14 8 3 11 13 12 16 6 4 5 12 18 19 20 20 16 8 9 6 4 7 5 5 7 18 22 9 8 10 5 6 4 3 3 11 16 20 12 11 8 9 3
4 4 7 6 11 12 15 20 21 20 20 5 3 6 8 7 7 11 14 5 7 4 3 2 3 5 10 5 8 2 10 3 3 3 4 2 4 5 11 19 17 19 11 6 4
3 3 4 4 7 10 19 21 22 21 19 14 5 8 12 14 11 10 18 7 3 3 4 4 4 4 7 11 12 10 15 10 3 2 3 6 10 10 10 12 11 10 12 8 4
2 4 4 5 11 17 9 2 18 19 9 9 5 10 10 6 13 15 13 15 12 13 4 3 7 4 8 17 19 18 18 13 8 8 5 9 10 10 9 7 9 7 8 9 10
3 3 4 2 10 12 14 6 13 4 2 5 4 4 7 4 6 8 11 9 5 11 2 3 3 4 7 14 17 17 19 21 17 18 14 19 20 15 14 12 12 12 12 10 6
7 6 3 6 5 8 6 8 9 10 6 10 8 7 11 11 5 10 15 16 16 18 19 2 1 5 7 14 16 13 14 13 21 20 21 21 21 16 9 9 9 9 11 12 7
Wind_Direction
286 290 296 297 302 306 310 312 317 319 323 327 326 327 331 332 325 320 294 299 322 312 315 300 286 292 307 288 269 257 266 263 266 269 289 348 84 297 289 265 155 62 50 122 150
277 283 288 293 298 301 303 307 310 314 318 321 321 325 330 333 319 295 282 263 276 301 327 309 310 314 296 290 290 262 248 264 276 288 314 298 306 280 280 233 252 96 98 127 149
272 278 282 285 290 293 297 300 303 309 312 315 318 324 326 332 303 71 68 0 329 321 310 303 297 294 289 284 277 273 259 268 273 295 311 303 290 292 259 253 219 193 149 153 159
268 274 278 280 285 285 290 293 296 300 305 308 315 322 324 315 283 128 330 326 316 305 288 289 290 281 280 285 282 283 282 263 288 284 296 290 288 272 275 268 273 237 156 160 169
270 275 272 273 277 283 285 286 288 293 298 300 306 317 337 272 251 269 298 298 295 289 273 274 282 282 276 277 289 280 280 283 282 271 270 276 266 269 276 280 262 261 143 162 172
271 282 286 283 283 282 284 284 284 285 291 294 297 303 285 266 269 275 284 276 269 285 285 281 282 287 285 292 286 287 289 284 282 286 281 281 271 261 257 264 273 240 155 168 178
278 284 292 294 296 293 294 293 290 288 287 289 292 287 248 245 270 278 277 275 275 277 276 270 275 273 285 289 284 279 287 286 271 266 265 263 261 257 258 258 252 248 188 171 180
264 273 277 293 297 296 295 294 293 294 296 292 289 273 260 256 261 263 266 265 263 261 257 264 265 266 265 271 276 274 276 273 270 264 257 242 261 259 247 239 252 233 206 202 177
263 268 275 279 283 286 288 291 291 291 293 298 281 225 276 284 231 258 255 257 261 250 240 245 261 248 253 248 261 249 258 264 274 265 265 247 259 274 248 258 255 224 211 211 189
273 275 271 277 283 288 286 287 288 282 278 256 251 287 247 249 248 251 241 234 241 245 248 208 243 240 219 232 238 246 252 253 255 258 245 260 252 245 254 251 282 273 200 209 191
255 260 284 297 306 304 318 295 255 229 218 220 201 234 285 290 225 241 245 253 245 248 247 223 231 232 237 230 241 260 273 276 279 288 290 275 272 274 280 260 233 250 210 224 193
250 254 282 300 312 313 306 246 284 354 286 243 248 259 251 265 271 265 265 239 223 238 240 241 246 244 254 256 256 258 258 262 268 266 276 281 275 267 260 243 249 259 218 219 204
248 251 264 289 310 291 253 265 285 346 269 269 247 246 245 235 249 251 240 244 227 246 243 253 253 243 249 257 262 256 260 260 268 275 269 273 273 267 265 259 243 248 256 213 221
245 243 241 275 286 271 259 265 246 272 275 272 245 246 234 232 256 248 236 235 245 246 244 255 262 258 264 260 253 256 261 268 272 294 281 286 282 270 273 271 266 233 227 232 206
227 234 233 219 318 292 356 347 117 221 269 277 236 164 199 190 239 206 221 217 237 242 234 251 248 249 250 254 256 254 253 264 315 289 279 269 251 276 267 267 263 270 230 220 199
220 220 221 238 252 262 286 304 210 223 237 251 189 184 190 204 237 229 187 211 236 241 240 250 250 253 256 265 265 286 282 270 284 271 258 257 226 274 254 266 266 260 272 227 194
216 220 218 233 247 258 281 249 226 229 215 247 242 194 217 234 226 235 238 215 218 230 235 239 245 250 250 264 271 252 263 235 239 235 249 255 256 239 275 275 281 252 282 280 182
223 223 230 233 243 264 272 235 232 229 234 276 329 258 224 223 233 221 232 239 223 247 259 230 245 239 234 236 242 234 233 225 236 239 251 249 248 252 251 256 250 261 336 119 167
224 234 236 233 232 247 233 226 217 238 269 251 320 291 274 267 249 256 226 249 247 221 242 242 253 262 250 222 229 238 232 234 249 266 275 263 274 274 279 279 254 312 48 36 154
223 243 237 226 224 226 236 245 249 249 276 329 259 286 287 284 276 262 258 256 231 272 26 271 264 262 267 321 253 237 252 233 194 227 227 244 250 269 348 328 134 137 108 51 93
158 332 259 225 207 212 229 226 242 251 270 243 311 308 291 298 300 299 306 316 59 314 336 281 222 277 285 228 240 200 232 215 215 245 242 253 270 35 19 1 358 11 161 93 357
140 206 218 223 218 202 206 213 234 256 255 275 288 284 285 277 286 286 296 32 350 3 343 37 295 275 247 279 278 295 268 257 214 197 264 333 241 33 358 355 359 359 22 57 358
186 228 243 163 230 222 228 235 244 252 250 165 243 82 354 326 324 294 277 101 326 9 29 353 286 327 319 19 285 270 280 259 346 222 186 195 263 68 341 337 331 333 358 33 345
161 205 220 187 241 240 223 235 239 236 251 252 215 257 263 278 292 296 305 294 265 343 205 303 254 263 289 311 310 309 292 296 173 197 248 225 293 287 192 210 242 265 296 277 237
169 225 188 202 229 230 224 221 242 237 235 5 261 247 289 294 293 274 313 330 312 232 225 274 259 253 292 311 311 304 313 284 272 258 243 285 254 278 308 226 200 236 278 259 170
168 215 204 262 228 215 230 225 231 197 114 190 257 22 21 293 305 325 341 333 298 340 232 190 283 335 252 264 293 318 302 286 266 241 260 259 260 260 254 241 230 238 258 247 228
185 276 281 173 195 202 226 240 249 261 265 243 271 257 286 289 215 273 283 284 263 276 293 157 31 5 300 320 320 313 292 303 316 257 246 238 246 261 216 252 249 245 244 240 229
Height
812 811 811 811 810 810 809 809 808 807 805 801 802 799 795 791 786 781 777 773 772 770 770 768 763 757 752 748 742 737 760 759 746 734 718 702 712 703 701 706 706 713 728 735 753
809 810 809 809 809 808 808 808 807 805 804 801 799 798 795 792 786 775 772 769 770 770 770 768 763 758 757 750 741 742 753 747 724 715 714 707 709 708 712 710 712 727 736 746 755
806 808 807 806 806 806 806 806 805 804 802 802 800 796 795 792 784 767 769 770 769 770 771 768 765 760 758 749 744 738 741 730 724 715 711 714 713 706 712 716 711 719 735 740 751
802 804 804 804 803 804 804 804 803 802 801 801 800 797 793 793 790 764 770 767 767 768 768 765 761 759 758 755 741 745 726 723 722 719 718 720 711 715 711 708 700 700 715 732 741
799 800 801 800 800 801 801 801 800 799 799 799 797 797 793 784 774 772 768 764 764 764 763 761 760 757 756 745 738 740 728 721 719 718 716 712 716 716 714 703 697 699 716 730 740
796 798 798 797 798 798 798 800 798 796 796 797 796 796 797 787 769 766 764 763 762 761 760 759 755 751 749 749 749 741 735 728 721 719 715 717 711 710 708 702 700 699 712 724 732
796 796 796 795 796 795 796 796 796 794 793 793 794 794 788 773 767 762 760 758 758 758 756 756 756 756 749 751 740 737 739 727 722 717 716 712 711 711 699 699 698 698 700 715 725
794 794 795 794 795 794 793 793 792 793 793 792 790 792 775 763 759 757 752 750 751 751 752 752 754 751 752 746 746 751 744 745 722 711 703 707 707 697 688 692 695 693 695 702 711
792 792 794 794 793 793 792 791 790 791 790 792 791 786 767 753 752 747 749 745 745 743 745 746 748 747 748 754 755 748 748 740 720 700 695 694 696 687 681 686 686 689 691 698 705
791 791 791 791 790 791 789 789 788 787 787 789 786 789 762 746 742 739 740 742 740 738 741 744 746 749 744 749 751 740 729 716 713 695 685 688 687 681 677 679 683 679 684 691 699
787 790 792 791 790 788 787 786 787 780 780 769 762 756 737 736 737 738 737 737 737 738 745 733 744 742 734 725 727 725 724 718 702 688 688 687 683 680 672 673 677 678 679 684 690
788 788 789 791 790 788 786 780 780 783 772 762 756 744 743 746 737 734 737 737 734 740 733 736 726 723 714 711 714 711 715 710 699 691 691 686 681 673 670 670 672 673 672 677 681
785 787 789 789 790 788 785 780 778 778 775 747 738 730 728 735 727 723 731 727 730 730 728 731 706 712 713 715 713 707 708 707 706 692 682 685 681 674 664 658 658 660 660 663 673
784 784 786 790 791 785 780 779 780 781 774 730 716 706 712 720 717 711 715 721 722 721 724 719 704 711 710 704 704 716 697 694 694 704 714 699 708 673 667 659 651 648 651 655 659
780 784 785 786 785 784 783 780 781 784 780 706 693 691 700 710 699 690 697 710 713 715 725 700 706 711 707 697 693 696 690 694 701 716 720 697 717 659 668 662 652 642 636 637 644
778 779 784 787 785 784 783 783 786 784 759 712 692 700 704 703 703 692 699 701 700 710 711 693 696 696 690 683 680 686 693 706 713 732 738 688 707 689 664 655 646 635 629 622 631
774 777 779 782 782 782 781 783 786 766 717 705 695 694 699 699 700 698 700 702 709 716 708 697 690 684 686 692 684 690 706 731 735 733 717 683 693 670 639 636 629 627 622 620 620
771 773 773 778 779 782 782 782 766 733 724 684 681 687 690 688 688 693 698 697 693 697 695 697 701 677 673 680 681 688 696 712 714 709 692 668 672 644 630 621 614 612 618 617 626
768 769 771 771 776 779 784 771 752 735 711 711 720 710 702 683 682 684 689 700 685 687 694 689 683 663 652 657 668 673 692 677 702 689 697 676 651 637 626 621 618 620 630 630 633
768 769 761 765 770 775 773 758 750 732 726 728 739 715 709 692 686 685 685 677 682 683 699 690 696 662 654 662 663 668 665 692 696 709 699 672 658 648 643 627 621 627 634 640 640
766 769 756 761 765 767 759 755 744 736 734 747 738 725 713 711 706 701 696 686 701 701 696 703 698 677 671 670 681 675 684 683 697 692 683 682 665 646 653 649 644 633 634 641 645
762 764 754 757 759 757 748 738 737 729 728 743 743 732 724 721 719 713 705 718 711 709 708 712 711 694 689 676 667 668 678 670 692 699 701 690 671 668 675 669 655 654 647 646 652
756 755 750 753 744 741 730 733 735 733 728 751 746 748 749 738 737 714 711 727 721 719 723 719 704 698 679 676 675 678 677 688 710 696 690 691 677 670 681 679 677 676 662 659 661
753 749 749 748 747 737 726 724 725 724 725 728 747 741 740 734 730 741 732 720 725 720 725 712 703 709 710 707 704 703 689 679 688 692 679 687 675 669 675 679 678 679 677 663 666
748 740 737 736 737 737 732 731 724 725 732 742 736 734 735 742 733 735 735 729 719 723 714 714 711 713 712 706 692 686 681 686 695 691 689 671 669 664 660 664 665 663 661 660 666
743 738 732 735 723 730 730 736 728 725 737 741 746 745 747 751 753 750 751 744 742 723 712 719 714 716 715 701 695 695 691 682 679 684 682 678 669 653 653 650 657 656 658 655 658
740 739 736 731 727 733 731 730 728 728 733 734 736 742 741 743 753 751 747 743 738 735 719 724 716 714 708 692 695 701 676 668 670 657 656 665 654 642 643 648 649 650 653 650 644